Meteo Giornale » Osservazioni meteo Portogallo » Porto-Pedras Rubras
ore: 22:30 - Osservazioni Meteo Porto-Pedras Rubras
Lat. 41° 14' N Lon. 8° 41' W Alt. 69 metri s.l.m.
18 °C
Sereno
Temp. 24 Ore
14 °C
22 °C
Nord
5.5 Km/h
Dew point 17 °C
Umidità 93 %
Visibilità 10 Km
Il sole sorge alle ore 07:01
Il sole tramonta alle ore 20:08
| Data e Ora | Cielo e Fenomeni | T °C | DP °C | Um. % | Pres. hPa | Vis. km | Vento km/h | |
|---|---|---|---|---|---|---|---|---|
| Oggi h: 22:30 | Sereno | 18 | 17 | 93 | 1020 | 10 | N 5.5 | |
| Oggi h: 22:00 | Poco Nuvoloso | 18 | 17 | 93 | 1020 | 10 | N/NO 7.4 | |
| Oggi h: 21:30 | Poco Nuvoloso | 18 | 17 | 93 | 1020 | 10 | NO 9.3 | |
| Oggi h: 21:00 | Nuvoloso | 19 | 17 | 88 | 1020 | 10 | NO 13 | |
| Oggi h: 20:30 | Poco Nuvoloso | 19 | 17 | 88 | 1020 | 10 | NO 13 | |
| Oggi h: 20:00 | Sereno | 19 | 17 | 88 | 1020 | 10 | NO 9.3 | |
| Oggi h: 19:30 | Sereno | 20 | 17 | 82 | 1020 | 10 | NO 13 | |
| Oggi h: 19:00 | Sereno | 21 | 17 | 77 | 1019 | 10 | NO 16.7 | |
| Oggi h: 18:30 | Sereno | 22 | 17 | 73 | 1019 | 10 | N/NO 18.5 | |
| Oggi h: 18:00 | Sereno | 22 | 17 | 73 | 1019 | 10 | NO 18.5 | |
| Oggi h: 17:30 | Sereno | 21 | 17 | 77 | 1019 | 10 | N/NO 25.9 | |
| Oggi h: 17:00 | Sereno | 21 | 17 | 77 | 1019 | 10 | N/NO 27.8 | |
| Oggi h: 16:30 | Sereno | 21 | 16 | 73 | 1019 | 10 | NO 20.3 | |
| Oggi h: 16:00 | Sereno | 21 | 16 | 73 | 1019 | 10 | NO 22.2 | |
| Oggi h: 15:30 | Sereno | 21 | 16 | 73 | 1019 | 10 | NO 16.7 | |
| Oggi h: 15:00 | Sereno | 22 | 16 | 68 | 1019 | 10 | NO 13 | |
| Oggi h: 14:30 | Sereno | 22 | 16 | 68 | 1019 | 10 | O/NO 11.1 | |
| Oggi h: 14:00 | Sereno | 22 | 16 | 68 | 1019 | 10 | NO 11.1 | |
| Oggi h: 13:30 | Sereno | 21 | 16 | 73 | 1020 | 10 | NO 11.1 | |
| Oggi h: 13:00 | Sereno | 21 | 17 | 77 | 1020 | 10 | O/NO 13 | |
| Oggi h: 12:30 | Poco Nuvoloso | 21 | 16 | 73 | 1020 | 10 | O/NO 14.8 | |
| Oggi h: 12:00 | Poco Nuvoloso | 21 | 16 | 73 | 1020 | 10 | O 9.3 | |
| Oggi h: 11:30 | Poco Nuvoloso | 21 | 17 | 77 | 1020 | 10 | N 5.5 | |
| Oggi h: 11:00 | Poco Nuvoloso | 21 | 17 | 77 | 1020 | 10 | N 3.7 | |
| Oggi h: 10:30 | Poco Nuvoloso | 20 | 17 | 82 | 1020 | 10 | N 5.5 | |
| Oggi h: 10:00 | Sereno | 19 | 16 | 82 | 1020 | 10 | N 3.7 | |
| Oggi h: 09:30 | Sereno | 18 | 15 | 82 | 1020 | 10 | N 3.7 | |
| Oggi h: 09:00 | Sereno | 17 | 15 | 88 | 1020 | 10 | N 3.7 | |
| Oggi h: 08:30 | Sereno | 16 | 15 | 93 | 1020 | 10 | E/SE 9.3 | |
| Oggi h: 08:00 | Poco Nuvoloso | 16 | 15 | 93 | 1019 | 10 | SE 9.3 | |
| Oggi h: 07:30 | Poco Nuvoloso | 15 | 14 | 93 | 1019 | 10 | N 1.8 | |
| Oggi h: 07:00 | Sereno | 15 | 14 | 93 | 1019 | 10 | N 3.7 | |
| Oggi h: 06:30 | Sereno | 15 | 14 | 93 | 1019 | 10 | N 1.8 | |
| Oggi h: 06:00 | Sereno | 14 | 13 | 93 | 1019 | 10 | N 1.8 | |
| Oggi h: 05:30 | Sereno | 15 | 14 | 93 | 1019 | 10 | E/SE 7.4 | |
| Oggi h: 05:00 | Sereno | 15 | 14 | 93 | 1019 | 10 | N 5.5 | |
| Oggi h: 04:30 | Sereno | 15 | 14 | 93 | 1019 | 10 | N 0 | |
| Oggi h: 04:00 | Sereno | 15 | 14 | 93 | 1019 | 10 | N 0 | |
| Oggi h: 03:30 | Sereno | 15 | 14 | 93 | 1019 | 10 | N 0 | |
| Oggi h: 03:00 | Sereno | 15 | 14 | 93 | 1019 | 10 | N 3.7 | |
| Oggi h: 02:30 | Sereno | 15 | 14 | 93 | 1019 | 10 | N 3.7 | |
| Oggi h: 02:00 | Sereno | 15 | 14 | 93 | 1020 | 10 | N 5.5 | |
| Oggi h: 01:30 | Sereno | 17 | 15 | 88 | 1019 | 10 | N 1.8 | |
| Oggi h: 01:00 | Sereno | 17 | 15 | 88 | 1019 | 10 | N 5.5 | |
| Oggi h: 00:30 | Sereno | 17 | 15 | 88 | 1020 | 10 | E/SE 7.4 | |
| Oggi h: 00:00 | Sereno | 17 | 16 | 93 | 1020 | 10 | E/NE 7.4 | |



